Погода в Туркменбаши

Погода в Туркменбаши : погода сейчас, прогноз погоды и архив. Всё, что Вы хотите узнать о погоде в Туркменбаши!

Поиск расширенной информации на нашем сайте:

Другие новости

Новости СМИ2

Главная страница сайта

Новости сайта

03.07.2017

Напоминаем, что на нашем специализированном сайте Метеоцентр.Азия вы можете получить высокодетализированные автоматические прогнозы погоды по пунктам России, СНГ и мира в авиационном формате (включающие направление и скорость ветра, видимость, явления погоды, количество и форму облачности, нижнюю и верхнюю границу облачности).

Рекомендуем: Видеоэндоскопы mitcorp видеоэндоскоп.

Погода в Туркменбаши - сегодня

Время (UTC), дата Ветер
(°,м/с) 
Видим.   Явления Облачность Т
(°С)
Тd
(°С)
f(%) Тe
(°С)
Pmin
(гПа)
dP
(гПа)
Po
(мм)
O2
(г/м3)
Тmin Tmax R s Состояние
почвы
21 13.08.18 300 (СЗ) 4000 м    6/0 средняя 
[Ac trans]
+24 +12.7 49 +29  1008.6  -0.2  749  275           
00 14.08.18 320 (СЗ) 4000 м    6/0 средняя 
[Ac trans]
+23.8 +15.3 59 +33  1009.2  0.6  750  275           
03 14.08.18 300 (СЗ) 20000 м  {ливн. осадки}  9/4 1000 м кучево-дожд., средняя 
[Cb cap|Ac trans]
+22.6 +14.9 62 +31  1010.8  1.6  751  276      0.0     
06 14.08.18 340 (С) 20000 м  {ливн. осадки}  9/0 средняя 
[Ac trans]
+24.5 +15.6 58 +34  1011.8  752  275  +22.4    0.0     
09 14.08.18 340 (С) 20000 м  в посл. час ливневой дождь  9/3 1000 м кучево-дожд., средняя 
[Cb cap|Ac trans]
+29.1 +15.5 44 +39  1011.1  -0.5  751  270           
12 14.08.18 340 (С) 20000 м  {ливн. осадки}  9/3 1000 м кучево-дожд., средняя 
[Cb cap|Ac trans]
+28.8 +14.4 41 +36  1010.5  -0.6  751  271           
15 14.08.18 330 (СЗ) 20000 м    10/4 1500 м кучево-дожд., средняя 
[Cb cap|Ac As]
+25.2 +15.1 54 +34  1011.3  0.6  751  274    +29.5  0.0     
18 14.08.18 350 (С) 4000 м    8/0 средняя 
[Ac trans]
+23.6 +15.7 61 +33  1012.4  752  276    +29.5  0.0     
21 14.08.18 340 (С) 4000 м    8/0 средняя 
[Ac trans]
+23 +14.6 59 +31  1012.3  -0.1  752  276           
00 15.08.18 тихо ()   4000 м    3/0 средняя 
[Ac trans]
+22 +14.8 64 +30  1011.5  -0.8  751  277           
03 15.08.18 тихо ()   20000 м    6/0 средняя 
[Ac trans]
+22 +16.2 70 +33  1012  0.6  752  277           
06 15.08.18 140 (ЮВ) 20000 м    6/0 средняя, верхняя 
[Ac trans|Ci fib]
+31.2 +15.2 38 +40  1012.2  0.4  752  269  +21.3         
09 15.08.18 180 (Ю) 20000 м    8/0 средняя, верхняя 
[Ac trans|Ci fib]
+31.4 +19 48 +48  1011.9  -0.3  752  267           
12 15.08.18 280 (З) 20000 м    4/0 верхняя 
[Ci fib]
+32.6 +15.4 36 +42  1011  -0.8  751  267           
15 15.08.18 350 (С) 20000 м    6/0 средняя, верхняя 
[Ac trans|Ci fib]
+30.9 +13.4 34 +37  1011.3  0.2  751  269    +32.8       
18 15.08.18 320 (СЗ) 4000 м    6/0 верхняя 
[Ci fib]
+25.8 +13.8 47 +32  1012.5  752  274    +32.8       
21 15.08.18 350 (С) 4000 м    6/0 верхняя 
[Ci fib]
+25.6 +14.2 49 +33  1012.2  -0.3  752  274           
00 16.08.18 030 (СВ) 4000 м    6/0 верхняя 
[Ci fib]
+25.9 +14.1 48 +33  1012.4  0.2  752  274           
03 16.08.18 050 (СВ) 20000 м    8/0 средняя 
[Ac trans]
+26.6 +15.2 50 +36  1012.9  0.6  753  273           
06 16.08.18 160 (Ю) 20000 м    8/0 средняя 
[Ac trans]
+28.8 +19 55 +45  1013.3  0.4  753  270  +25.6         
09 16.08.18 190 (Ю) 20000 м    4/0 средняя 
[Ac trans]
+30.5 +20.6 56 +50  1013.2  753  268           
12 16.08.18 200 (Ю) 20000 м    4/3 600 м средняя 
[Sc|Ac trans]
+31 +21.4 57 +53  1012.1  -1.1  752  267           
15 16.08.18 150 (ЮВ) 20000 м    3/0 средняя 
[Ac trans]
+29 +20.8 61 +49  1011.2  -0.9  751  269    +31.8       
18 16.08.18 тихо ()   4000 м    ясно 
+26.6 +21 71 +48  1012.1  0.8  752  271    +31.8       
21 16.08.18 тихо ()   4000 м    ясно 
+25.3 +21.9 81 +48  1011.1  -1  751  271           
Время (UTC), дата Ветер
(°,м/с) 
Видим.   Явления Облачность Т
(°С)
Тd
(°С)
f(%) Тe
(°С)
Pmin
(гПа)
dP
(гПа)
Po
(мм)
O2
(г/м3)
Тmin Tmax R s Состояние
почвы

Для получения пояснительной информации подведите курсор к названию столбца.

ПОГОДА в Туркменбаши - архив

Всё, что Вы хотите узнать о погоде в Туркменбаши - удобно и подробно!

Выберите нужную дату (начиная с 1 января 2015* года) и нажмите кнопку "Найти".
Будут отображены архивные сводки погоды по пункту Туркменбаши, начиная с указанной даты.


Отображать данные в формате CSV (для использования в таблицах Excel)


Внимание! Наш архив погоды предназначен исключительно для личного некоммерческого использования в познавательных целях. Если Вам необходимы официальные справки о состоянии погоды (для производственных, юридических, коммерческих и т.п. целей), обращайтесь в органы Росгидромета.

*Примечание: данная дата относится к архиву по метеостанциям СССР (Россия, СНГ, Балтия).
Архив по метеостанциям Зарубежной Европы и Азии (кроме Китая) хранится 10 дней, по другим регионам земного шара (Китай, Африка, Америка, Австралия, Океания) - 1 день.

Туркменбаши - район местоположения метеостанции


Название, широта, долгота, высота метеостанции:
Туркменбаши (Красноводск) 40.1°ш. 53°д. -13 м над ур. моря [Туркменистан]

Дополнительная информация

В oтличие oт бoльшинства пoгoдных сайтoв мы публикуем пoдрoбную метеoинфoрмацию в детальнoм прoфессиoнальнoм фoрмате.

Характеристики температуры и влажнoсти вoздуха измеряются на высoте 2 м в тени вдали oт зданий и деревьев.
Скoрoсть ветра измеряется на высoте 10 м (на урoвне рoста челoвека скoрoсть ветра ниже в 1.5-2 раза). Если метеoстанция нахoдится в гoрoде или в лесу, тo скoрoсть ветра занижена на 2-4 м/с пo сравнению с oткрытым местoм. Скoрoсть ветра над акватoриями крупных рек и oзёр, а также на вершинах хoлмoв на 2-5 м/с выше, чем в oбычных услoвиях.
Атмoсфернoе давление в разных тoчках местнoсти мoжет значительнo oтличаться oт давления на метеoстанции, в зависимoсти oт услoвий рельефа (при пoдъёме на 10 м давление пoнижается примернo на 1 мм рт.ст.).